Location: Kitchener
(43.4500°N, 80.5000°W)
Time: 03:06:28
(UTC-05:00)

ATLAS 5 CENTAUR R/B - Visible Passes

Search period start: 18 January 2017 00:00
Search period end: 28 January 2017 00:00
Orbit: 648 x 1012 km, 63.4° (Epoch: 16 January)

Date Brightness Start Highest point End Pass type
(mag) Time Alt. Az. Time Alt. Az. Time Alt. Az.
18 Jan 4.3 19:34:39 10° N 19:36:14 13° N 19:36:14 13° N visible
19 Jan 4.2 19:15:47 10° N 19:18:03 13° NNE 19:18:03 13° NNE visible
19 Jan 4.8 20:59:18 10° NNW 20:59:37 11° NNW 20:59:37 11° NNW visible
20 Jan 4.2 18:56:55 10° N 18:59:27 13° NNE 18:59:55 13° NNE visible
20 Jan 4.5 20:40:24 10° NNW 20:41:29 15° NNW 20:41:29 15° NNW visible
21 Jan 4.1 18:38:03 10° N 18:40:26 13° NNE 18:41:50 12° NE visible
21 Jan 4.2 20:21:30 10° NNW 20:23:24 20° N 20:23:24 20° N visible
22 Jan 4.2 18:19:11 10° N 18:21:25 12° NNE 18:23:44 10° NE visible
22 Jan 3.8 20:02:36 10° NNW 20:05:22 24° N 20:05:22 24° N visible
23 Jan 4.2 18:00:19 10° N 18:02:25 12° NNE 18:04:34 10° NE visible
23 Jan 3.5 19:43:42 10° NNW 19:47:24 29° NNE 19:47:24 29° NNE visible
23 Jan 4.8 21:28:06 10° NW 21:28:59 15° NW 21:28:59 15° NW visible
24 Jan 3.2 19:24:48 10° NNW 19:29:31 31° NNE 19:29:31 31° NNE visible
24 Jan 4.4 21:09:10 10° NW 21:11:06 22° NW 21:11:06 22° NW visible
25 Jan 3.2 19:05:54 10° NNW 19:11:00 30° NE 19:11:45 29° NE visible
25 Jan 3.8 20:50:13 10° NW 20:53:20 33° NW 20:53:20 33° NW visible
26 Jan 3.2 18:47:01 10° NNW 18:52:02 29° NE 18:54:07 24° ENE visible
26 Jan 3.0 20:31:16 10° NW 20:35:44 51° WNW 20:35:44 51° WNW visible
27 Jan 3.3 18:28:07 10° NNW 18:33:04 28° NE 18:36:40 17° E visible
27 Jan 2.5 20:12:20 10° NW 20:18:18 74° WSW 20:18:18 74° WSW visible
27 Jan 5.2 21:59:31 10° W 21:59:55 11° W 21:59:55 11° W visible
